Simultaneous Nadir Overpasses (SNOs) Predictions

Prediction of SNOs between LANDSAT-8 and NOAA-19 Satellite Orbit:

Table of predicted SNOs for the next 14.0 days since TLE Epoch: 9/21/2018
Index Date (LANDSAT-8) Time (LANDSAT-8) Lat,Lon (LANDSAT-8) SZA (LANDSAT-8 ) Date (NOAA-19) Time (NOAA-19) Lat,Lon (NOAA-19) SZA (NOAA-19 ) Distance(km) Time Diff (sec)
1 09/23/2018 11:45:57 77.97, 18.95 78.63 09/23/2018 11:45:48 77.98, 18.99 78.63 0.82 9
2 09/25/2018 17:19:43 -77.98, 115.54 100.49 09/25/2018 17:19:23 -77.99, 115.61 100.48 1.66 20
3 09/25/2018 18:09:09 77.97, -76.86 79.52 09/25/2018 18:10:20 77.96, -76.97 79.52 2.88 71
4 09/27/2018 22:53:27 78.00,-147.78 80.42 09/27/2018 22:52:53 78.02,-147.89 80.43 3.10 34
5 09/27/2018 23:42:55 -77.98, 19.73 99.60 09/27/2018 23:43:55 -77.95, 19.75 99.61 2.85 60
6 09/30/2018 04:27:13 -78.01, -51.19 98.69 09/30/2018 04:26:28 -78.00, -51.07 98.71 3.01 45
7 09/30/2018 05:16:39 78.00, 116.39 81.31 09/30/2018 05:17:24 77.97, 116.36 81.29 3.08 45
8 10/02/2018 10:00:57 78.03, 45.45 82.21 10/02/2018 09:59:57 78.03, 45.44 82.20 0.84 60
9 10/02/2018 10:50:25 -78.01,-147.01 97.81 10/02/2018 10:51:01 -78.01,-147.18 97.81 3.90 36
10 10/04/2018 15:34:43 -78.04, 142.05 96.92 10/04/2018 15:33:34 -78.06, 141.96 96.92 3.34 69




NCC Satellite Simultaneous Nadir Overpasses (SNOs) Prediction Service
